Temperature
12 12 12 12 12 11 11 11 10 10 10 10 10 10 10 10 10 10 10 10 10 9 9 9 8 8 8 8 8 8 8 8 8 8 8 7 7 7 7 6 6 6 6
12 12 12 12 11 11 11 10 10 10 10 10 10 10 10 10 10 10 10 10 10 9 9 9 9 8 8 8 8 8 8 8 8 8 7 7 7 7 6 6 6 6 6
12 12 12 12 11 11 11 10 10 10 10 10 10 10 10 10 10 10 10 10 10 9 9 9 9 9 8 8 8 8 8 8 8 8 7 7 7 6 6 6 5 5 5
12 12 12 12 11 11 10 10 10 10 9 9 9 9 9 9 9 10 10 10 9 9 9 9 9 9 9 9 8 8 8 8 8 7 7 7 6 6 6 5 5 5 5
12 12 12 12 11 11 10 10 10 10 10 9 9 9 9 9 9 9 10 9 9 9 9 9 9 9 9 9 8 8 8 8 7 7 7 7 6 6 5 5 5 5 5
12 12 12 11 11 11 10 10 10 9 9 9 9 9 9 9 9 9 9 9 9 9 9 9 9 9 9 9 8 8 8 7 7 7 7 6 6 6 5 5 5 4 4
12 12 12 11 11 11 10 10 10 9 9 9 9 9 9 9 9 9 9 9 9 9 9 9 9 9 9 8 8 8 8 7 7 7 7 6 6 5 5 5 4 4 4
12 12 12 12 11 11 10 10 10 9 9 9 9 9 9 9 9 9 9 9 9 9 9 9 9 9 8 8 8 8 7 7 7 7 6 6 6 5 5 4 4 4 3
12 12 12 12 11 11 11 10 10 10 10 9 9 9 9 9 9 9 9 9 9 9 9 9 9 9 8 8 8 8 7 7 7 6 6 6 5 5 4 4 4 3 3
12 12 12 12 11 11 11 11 10 10 10 10 9 9 9 10 9 9 9 9 9 9 9 9 9 9 8 8 8 7 7 7 6 6 6 5 5 4 4 3 3 3 3
12 12 12 11 11 11 11 11 10 10 10 10 10 9 9 9 9 9 9 9 9 9 9 9 8 8 8 8 8 7 7 6 6 6 5 5 4 4 3 3 3 2 2
12 12 12 11 11 11 11 11 10 10 10 10 9 9 9 9 9 9 9 9 9 9 9 8 8 8 8 8 7 7 7 6 6 5 5 4 4 4 3 3 2 2 2
13 13 12 12 11 11 11 11 10 10 10 10 9 9 9 9 9 9 9 9 9 9 9 8 8 8 8 7 7 7 6 6 5 5 4 4 4 3 3 2 2 2 1
15 14 13 12 12 11 11 10 10 10 10 9 9 9 9 9 9 9 9 9 8 8 8 8 8 8 7 7 7 6 6 6 5 4 4 3 3 2 2 2 1 1 1
14 14 13 12 12 11 11 10 10 10 10 9 9 9 9 9 9 9 8 8 8 7 8 8 8 7 7 7 6 6 6 5 4 4 3 3 2 2 1 1 0 0 -0
14 13 13 12 12 11 11 10 10 10 10 9 9 9 9 9 9 9 8 8 8 7 7 7 7 7 6 6 6 5 5 4 4 3 3 2 2 1 1 0 -0 -1 -1
13 13 13 12 11 11 11 10 10 10 10 9 9 9 9 9 9 8 8 8 8 7 7 7 7 6 6 5 5 5 4 4 3 3 2 1 1 0 -0 -0 -1 -1 -2
13 13 12 12 11 11 11 10 10 10 10 9 9 9 9 9 9 8 8 8 7 7 7 6 6 6 5 5 4 4 3 3 2 2 1 1 0 -0 -1 -1 -2 -2 -2
12 12 12 12 11 11 11 10 10 10 10 10 9 9 9 9 8 8 8 7 7 7 6 6 6 5 5 4 4 3 3 2 2 1 1 0 -0 -1 -1 -2 -2 -2 -3
12 12 12 12 11 11 11 10 10 10 9 9 9 9 9 8 8 8 7 7 7 6 6 5 5 4 4 3 3 2 2 2 1 1 0 -0 -1 -2 -2 -2 -3 -3 -3
12 12 11 11 11 10 10 10 10 9 9 9 9 9 8 8 8 7 7 7 6 6 5 5 5 4 3 3 2 1 1 0 0 -0 -1 -1 -2 -2 -2 -3 -3 -4 -4
12 11 11 11 11 10 10 10 10 9 9 9 9 8 8 8 7 7 7 6 6 5 5 4 4 3 2 2 1 0 -0 -1 -1 -1 -2 -2 -2 -3 -3 -3 -4 -4 -5
11 11 11 11 10 10 10 10 9 9 9 9 8 8 8 7 7 7 6 6 5 5 4 3 3 2 1 1 0 -0 -1 -1 -2 -2 -3 -3 -3 -3 -4 -4 -4 -5 -6
11 11 11 10 10 10 10 9 9 9 9 8 8 8 7 7 7 6 6 5 5 4 3 3 2 1 0 -0 -1 -1 -2 -2 -2 -3 -4 -4 -4 -4 -4 -4 -5 -6 -6
11 11 10 10 10 10 9 9 9 9 8 8 8 7 7 6 6 6 5 5 4 3 3 2 1 1 -0 -1 -1 -2 -2 -3 -3 -4 -4 -5 -5 -5 -5 -5 -6 -6 -7
11 10 10 10 10 9 9 9 8 8 8 8 7 7 6 6 5 5 4 4 3 3 2 1 1 0 -1 -1 -2 -3 -3 -4 -5 -5 -6 -6 -6 -7 -7 -6 -6 -7 -7
Wind_Speed
7 8 8 10 10 10 9 7 6 5 4 4 6 8 8 9 9 9 8 8 8 7 7 7 7 7 7 7 8 8 8 8 8 9 9 10 10 10 11 11 12 12 12
11 8 7 8 9 11 10 9 7 5 4 4 5 7 8 9 9 9 8 7 7 6 6 6 6 5 6 6 6 6 6 6 7 7 8 8 9 9 10 10 11 11 12
15 11 7 6 9 12 11 8 6 5 4 4 4 5 7 8 8 9 8 7 7 6 5 5 4 3 3 4 4 4 4 5 5 6 7 7 8 9 9 10 10 11 11
18 13 8 7 11 11 9 5 4 4 4 4 3 3 4 6 7 8 8 8 7 6 5 4 3 2 2 2 2 2 2 3 4 5 6 6 7 8 9 9 10 10 11
19 14 9 9 12 8 5 5 4 4 4 4 4 3 2 3 4 6 6 7 8 7 6 4 4 3 2 1 0 0 1 2 3 4 5 6 7 8 8 9 10 10 11
19 15 10 10 12 7 6 5 5 4 4 5 4 3 1 1 2 4 5 7 8 8 8 6 5 4 4 3 3 3 2 2 3 4 5 6 7 8 9 10 10 11 12
19 14 8 9 9 9 8 8 5 5 4 4 4 2 3 2 1 2 3 4 6 8 9 8 8 7 5 5 5 5 4 4 5 5 6 7 8 9 10 11 11 12 13
18 15 11 10 9 8 9 8 6 5 3 4 4 3 0 3 3 2 2 4 4 6 7 9 9 9 8 6 6 6 6 6 6 6 7 8 9 10 11 12 13 14 14
18 15 14 11 10 10 10 9 9 8 6 4 3 5 4 4 2 2 3 3 4 3 5 7 9 10 10 9 8 7 6 6 7 7 8 9 10 11 12 13 14 15 16
16 16 15 13 12 10 10 11 9 6 8 5 3 2 3 4 3 1 3 2 3 5 5 5 7 9 10 10 9 9 8 8 8 9 9 10 11 13 14 14 15 16 17
13 15 15 13 13 11 12 11 10 8 7 6 5 3 2 1 2 3 3 3 3 4 5 5 6 8 10 11 10 10 10 9 9 9 10 11 12 13 14 15 16 17 18
12 14 15 14 13 12 12 11 12 11 9 7 6 5 4 4 4 4 4 3 4 4 3 3 5 7 10 11 11 11 11 10 10 10 10 11 12 13 15 16 17 18 18
12 16 15 15 13 12 12 11 12 11 11 10 9 6 5 5 4 4 4 3 3 3 2 2 4 7 8 9 10 10 10 10 10 10 10 10 11 13 14 16 17 18 19
15 14 15 14 14 13 13 12 11 11 11 11 11 9 6 6 5 5 5 4 2 2 3 4 2 4 7 8 9 9 9 9 9 9 9 10 11 12 14 16 17 18 19
11 13 14 14 13 14 14 13 11 11 11 11 10 10 7 6 5 5 4 5 5 3 4 4 3 2 5 6 7 7 8 8 9 9 10 11 12 13 15 16 17 18 19
13 14 15 14 13 13 14 13 10 10 12 11 8 10 9 6 5 5 4 4 4 5 4 3 3 2 1 3 5 6 7 7 8 10 11 12 13 14 15 16 17 18 19
15 15 16 15 15 14 14 13 12 12 13 11 10 10 10 7 6 5 4 4 4 4 5 4 1 1 1 1 2 4 5 5 7 9 11 12 14 15 16 17 18 18 19
16 15 15 15 15 15 14 14 14 13 13 13 11 10 10 7 7 5 5 5 4 4 4 5 2 1 1 1 2 2 3 4 6 9 11 13 14 15 16 17 17 17 17
15 15 15 16 16 15 14 14 13 12 12 11 11 11 10 8 8 6 5 5 4 3 3 3 2 1 1 1 1 2 3 4 6 8 10 11 13 15 16 16 16 17 17
16 16 15 15 14 14 13 12 11 11 10 9 9 9 9 10 9 7 6 5 4 3 2 2 2 1 1 1 0 2 3 3 4 6 8 10 13 14 15 16 16 17 17
15 14 13 13 12 12 12 12 11 11 10 9 8 7 7 8 9 7 6 5 5 4 3 2 2 1 1 1 1 1 3 4 4 2 4 6 8 8 11 14 15 16 17
14 13 14 13 12 10 14 16 14 11 10 10 8 6 6 6 7 8 7 8 7 5 4 3 2 2 3 2 1 1 1 2 4 2 3 5 4 5 8 10 14 16 17
13 13 13 13 12 13 16 17 16 11 10 9 8 7 5 5 7 6 6 6 5 4 5 4 3 3 3 2 2 1 2 2 4 3 2 4 3 5 8 12 15 15 16
13 12 12 13 11 12 17 17 16 11 8 8 8 8 8 7 7 8 7 5 3 2 3 2 3 2 2 2 2 1 2 2 3 3 1 3 4 5 7 10 13 14 17
11 11 11 12 12 12 16 18 16 9 8 7 7 8 8 8 10 12 9 7 4 2 5 6 5 4 4 4 4 3 2 2 3 3 1 2 3 5 5 4 10 14 17
11 11 10 10 12 11 16 18 17 9 9 8 6 7 9 10 11 12 8 7 6 3 4 4 5 5 5 5 5 3 1 1 1 3 2 3 3 4 5 4 5 10 13
Wind_Direction
157 157 157 158 158 159 158 156 159 158 158 148 135 136 136 138 137 128 118 111 109 109 107 104 99 93 89 84 77 69 64 59 55 51 44 37 33 29 25 22 19 17 14
163 161 161 164 168 170 170 167 166 159 154 138 130 137 141 145 143 137 130 120 116 117 115 108 102 94 91 87 79 68 61 54 50 46 38 30 26 21 19 15 12 10 8
168 166 165 169 176 175 170 163 156 147 135 128 125 134 139 148 150 150 144 135 126 123 126 120 110 104 96 89 81 68 59 48 43 36 28 21 16 12 9 5 2 1 359
172 168 168 176 179 173 165 154 147 136 136 132 128 127 131 144 157 161 157 154 149 145 147 148 145 137 120 101 86 68 52 34 25 18 12 6 4 1 358 355 354 352 350
175 173 173 176 174 168 163 164 151 144 145 142 133 121 125 143 161 165 169 174 173 172 173 177 179 185 193 224 234 317 348 358 356 354 352 350 349 347 346 345 344 341 339
178 175 175 175 172 165 167 162 152 144 147 145 121 93 72 124 153 167 179 185 189 191 193 192 193 205 221 241 254 271 288 306 319 327 332 334 334 334 334 333 332 331 331
179 177 176 174 175 175 174 161 147 148 143 133 101 62 5 0 271 210 189 189 199 203 204 204 206 213 224 238 248 262 274 289 302 311 316 321 323 324 325 324 324 325 324
181 182 176 179 178 173 170 168 151 147 156 155 133 118 32 323 302 261 226 212 211 206 210 213 214 216 220 228 239 252 266 278 290 300 308 313 315 317 318 319 319 318 318
185 184 182 179 180 180 182 179 168 161 167 185 163 150 160 214 256 295 253 233 220 217 222 220 219 219 219 223 229 238 252 268 284 295 302 306 308 311 314 316 317 316 316
186 185 183 182 183 184 183 183 177 167 161 177 193 182 161 154 161 244 296 268 239 229 228 224 220 219 218 218 221 230 243 259 276 288 296 302 306 308 310 313 314 315 315
188 186 185 185 187 188 187 184 179 177 173 172 174 166 151 130 140 160 236 276 278 249 232 225 220 221 220 220 223 230 240 253 268 282 292 299 304 307 309 312 314 314 313
191 191 188 190 191 190 189 188 186 185 185 179 180 172 165 168 185 175 202 231 248 264 246 230 223 224 224 224 228 234 241 251 264 276 286 296 302 307 310 312 313 313 313
196 197 193 194 193 191 189 185 187 191 189 188 190 193 191 190 168 166 173 201 232 269 280 253 232 228 229 226 232 237 244 253 263 274 285 294 303 307 310 312 314 314 314
199 192 194 195 193 190 189 188 191 193 193 197 198 195 199 203 183 174 171 167 199 274 277 264 269 235 231 224 233 236 243 253 263 274 285 294 302 306 308 310 312 312 313
191 187 192 194 193 191 190 189 196 196 194 200 202 201 203 205 195 190 175 169 175 218 254 255 258 263 239 234 241 237 240 253 267 277 286 293 299 304 306 308 309 311 311
187 187 191 194 192 191 191 192 194 194 196 199 197 199 207 205 199 192 187 185 184 192 231 242 235 262 257 247 250 239 244 259 272 281 289 296 302 304 305 308 309 309 310
188 190 192 193 194 194 193 194 197 192 198 198 195 199 207 199 197 197 188 186 193 186 226 255 242 267 221 264 289 264 259 265 278 285 294 300 303 305 306 308 309 309 311
191 190 189 192 195 195 195 196 197 195 197 198 197 197 205 195 196 194 190 195 200 193 204 242 252 256 250 274 284 280 288 286 287 291 300 303 305 307 308 309 311 313 315
189 188 188 192 193 193 194 196 195 194 195 197 196 198 200 190 199 196 192 196 196 185 187 205 237 233 263 322 320 310 315 305 302 299 304 306 309 312 313 313 313 315 316
187 189 190 191 189 189 190 190 188 188 189 191 192 194 194 193 197 192 192 194 180 173 172 184 213 221 241 299 323 300 308 308 303 306 310 311 312 314 315 314 313 316 317
185 184 182 182 182 184 187 184 182 182 183 183 183 185 187 184 185 185 184 183 172 175 174 187 210 225 244 290 280 277 284 304 296 294 312 307 307 306 311 314 314 317 319
177 175 177 178 180 185 181 177 177 177 177 177 176 171 167 170 168 165 164 163 163 171 184 187 201 223 245 243 245 270 270 312 298 299 308 296 300 297 307 308 314 320 321
171 172 174 175 178 178 171 170 169 171 171 174 169 162 153 152 147 145 139 131 135 142 161 171 192 220 228 226 202 236 248 260 267 290 314 288 301 299 308 311 317 323 329
168 170 171 170 167 168 163 161 157 159 156 159 160 158 154 151 150 143 134 127 118 114 136 142 171 199 210 199 171 193 238 288 291 298 323 284 301 304 310 307 313 324 330
159 163 164 161 160 161 159 155 150 149 145 142 142 144 148 149 148 142 137 134 120 92 86 101 99 91 79 74 87 78 38 9 316 298 348 310 304 310 299 294 314 326 330
150 149 148 153 155 156 154 150 144 145 141 136 129 135 142 143 145 143 145 146 147 145 113 89 73 65 59 58 62 76 115 30 318 294 316 322 303 326 312 295 303 313 317
Height
1516 1519 1522 1524 1527 1529 1531 1533 1535 1536 1538 1539 1541 1542 1542 1543 1544 1544 1545 1545 1545 1545 1545 1544 1544 1544 1543 1542 1541 1540 1539 1537 1536 1535 1534 1532 1531 1530 1528 1527 1525 1523 1522
1515 1518 1521 1524 1526 1528 1531 1533 1535 1536 1538 1539 1541 1542 1543 1543 1544 1544 1545 1545 1545 1545 1545 1545 1544 1544 1543 1542 1541 1540 1539 1538 1536 1535 1534 1532 1531 1529 1528 1526 1525 1523 1521
1514 1517 1520 1522 1525 1528 1530 1532 1534 1536 1538 1539 1540 1541 1542 1543 1544 1544 1545 1545 1545 1545 1545 1545 1544 1544 1543 1542 1541 1540 1539 1538 1536 1535 1533 1532 1530 1529 1527 1525 1524 1522 1520
1512 1515 1518 1521 1524 1527 1529 1531 1533 1535 1537 1539 1540 1541 1542 1543 1543 1544 1544 1545 1545 1545 1545 1545 1544 1544 1543 1542 1541 1540 1539 1537 1536 1535 1533 1531 1530 1528 1526 1524 1522 1520 1519
1510 1514 1517 1520 1523 1525 1528 1530 1532 1534 1536 1538 1539 1541 1541 1542 1543 1543 1544 1544 1544 1544 1544 1544 1544 1543 1542 1541 1540 1539 1538 1537 1535 1534 1532 1530 1529 1527 1525 1523 1521 1519 1517
1508 1511 1515 1518 1521 1523 1526 1528 1531 1533 1535 1537 1539 1540 1541 1541 1542 1542 1543 1543 1543 1543 1543 1543 1543 1542 1541 1541 1540 1538 1537 1536 1535 1533 1531 1529 1527 1525 1523 1521 1519 1517 1515
1505 1508 1512 1515 1518 1521 1523 1526 1529 1531 1533 1535 1537 1538 1539 1540 1540 1541 1541 1541 1542 1542 1542 1542 1541 1541 1540 1539 1538 1537 1536 1534 1533 1531 1530 1528 1526 1523 1521 1519 1517 1515 1512
1501 1505 1508 1511 1515 1518 1521 1524 1526 1529 1531 1533 1535 1536 1538 1539 1538 1539 1539 1539 1540 1540 1540 1540 1540 1539 1538 1537 1536 1535 1534 1532 1531 1529 1527 1525 1523 1521 1519 1517 1514 1512 1509
1497 1501 1504 1508 1511 1515 1517 1520 1523 1526 1528 1530 1533 1534 1535 1535 1536 1536 1536 1537 1538 1538 1538 1538 1537 1537 1536 1535 1534 1533 1531 1530 1528 1526 1525 1523 1520 1518 1516 1513 1511 1508 1506
1493 1497 1500 1504 1508 1511 1514 1517 1520 1523 1526 1527 1530 1531 1533 1533 1534 1534 1535 1535 1535 1535 1535 1535 1535 1534 1533 1532 1531 1530 1528 1527 1525 1523 1521 1519 1517 1515 1513 1510 1507 1505 1502
1488 1492 1496 1500 1503 1507 1510 1514 1516 1519 1522 1524 1526 1528 1529 1531 1531 1532 1532 1532 1533 1533 1533 1532 1532 1531 1531 1530 1528 1527 1525 1524 1522 1520 1518 1515 1513 1511 1508 1506 1503 1500 1497
1483 1487 1491 1494 1498 1502 1505 1509 1512 1516 1518 1521 1523 1525 1526 1527 1528 1529 1529 1529 1529 1530 1530 1529 1529 1528 1527 1526 1525 1523 1522 1520 1518 1516 1513 1511 1509 1506 1504 1501 1498 1495 1492
1475 1479 1484 1488 1492 1496 1501 1505 1508 1511 1514 1517 1519 1522 1523 1525 1526 1527 1527 1526 1526 1526 1526 1526 1525 1524 1524 1522 1521 1520 1518 1516 1514 1511 1509 1507 1504 1501 1499 1496 1493 1490 1487
1469 1474 1479 1483 1487 1492 1496 1500 1504 1507 1510 1513 1515 1518 1520 1521 1522 1523 1524 1524 1523 1523 1522 1522 1521 1520 1520 1518 1517 1515 1513 1511 1509 1507 1505 1502 1499 1497 1494 1491 1487 1484 1481
1465 1470 1474 1478 1483 1487 1491 1495 1499 1502 1505 1508 1511 1514 1515 1517 1518 1519 1520 1520 1521 1519 1518 1517 1517 1516 1515 1514 1513 1511 1509 1507 1505 1502 1500 1497 1495 1492 1489 1485 1482 1479 1475
1460 1465 1469 1474 1478 1482 1486 1490 1494 1497 1501 1503 1506 1509 1511 1512 1514 1515 1515 1516 1516 1516 1514 1513 1513 1512 1511 1509 1508 1506 1504 1502 1500 1497 1495 1492 1489 1486 1483 1480 1477 1473 1470
1454 1459 1464 1469 1473 1477 1481 1485 1488 1492 1495 1498 1501 1503 1506 1508 1509 1510 1511 1511 1511 1511 1510 1509 1509 1507 1506 1504 1503 1501 1499 1497 1495 1492 1490 1487 1484 1481 1478 1474 1471 1467 1464
1448 1454 1459 1463 1468 1472 1476 1480 1483 1486 1490 1493 1495 1498 1500 1503 1504 1505 1506 1506 1506 1506 1506 1504 1504 1503 1501 1500 1498 1496 1494 1492 1489 1487 1485 1482 1478 1475 1472 1469 1465 1462 1458
1443 1448 1453 1457 1462 1466 1471 1475 1478 1482 1485 1488 1491 1493 1495 1498 1499 1500 1501 1501 1501 1501 1501 1500 1499 1498 1496 1495 1493 1491 1489 1487 1484 1482 1479 1476 1473 1469 1466 1463 1459 1456 1452
1437 1443 1447 1452 1457 1462 1466 1470 1473 1477 1480 1483 1486 1489 1491 1492 1494 1495 1496 1496 1497 1497 1496 1495 1494 1493 1491 1489 1488 1486 1483 1482 1479 1477 1474 1471 1468 1464 1461 1457 1454 1450 1447
1432 1437 1443 1447 1452 1457 1461 1465 1469 1472 1476 1479 1482 1484 1486 1488 1489 1491 1491 1492 1492 1492 1491 1490 1489 1488 1486 1485 1483 1481 1478 1476 1474 1471 1468 1466 1463 1459 1456 1452 1449 1445 1442
1427 1433 1438 1443 1447 1452 1456 1460 1464 1468 1472 1474 1477 1479 1482 1484 1485 1486 1487 1487 1488 1488 1487 1486 1485 1484 1482 1481 1479 1477 1475 1471 1468 1467 1463 1461 1458 1454 1451 1447 1444 1440 1437
1422 1428 1433 1438 1443 1448 1452 1457 1461 1464 1468 1470 1473 1475 1477 1479 1481 1482 1483 1483 1484 1483 1483 1483 1481 1480 1478 1477 1475 1473 1471 1468 1465 1462 1458 1455 1453 1450 1447 1443 1439 1436 1433
1417 1423 1428 1434 1439 1444 1449 1453 1457 1461 1464 1467 1469 1471 1474 1476 1477 1478 1479 1479 1479 1479 1479 1478 1477 1476 1475 1473 1471 1470 1467 1465 1462 1459 1455 1451 1447 1445 1442 1439 1435 1432 1428
1413 1419 1424 1430 1435 1440 1445 1449 1453 1457 1460 1463 1465 1468 1470 1472 1473 1474 1475 1476 1476 1476 1475 1474 1474 1473 1471 1470 1468 1466 1463 1461 1457 1455 1452 1448 1444 1440 1437 1435 1432 1428 1425
1410 1416 1421 1427 1432 1437 1441 1445 1450 1453 1456 1459 1462 1464 1467 1468 1470 1471 1472 1472 1472 1472 1472 1471 1470 1469 1468 1466 1464 1463 1460 1457 1454 1451 1449 1446 1442 1438 1432 1429 1428 1425 1421